When you browse on this site, cookies collect data to enhance your experience and personalize the content and advertising you see.
Visit our Privacy Policy to learn more. By continuing to use the site, you agree to this use of cookies and data.
  • In Romania
  • List of Countries
  • For 7 days
  • Water Temperature
  • Satellite Maps
  • Weather Map
  • Weather Widgets
  • user-avatar
    Login

    Hourly Weather Myslakow

    Today, 18 February, Monday

    Time Temperature Precipitation Wind Pressure Humidity
    00:00 +4°C° 0 mm 2 mps 747 mmHg 62%
    01:00 +4°C° 0 mm 2 mps 747 mmHg 61%
    02:00 +4°C° 0 mm 2 mps 747 mmHg 61%
    03:00 +4°C° 0 mm 2 mps 746 mmHg 62%
    04:00 +4°C° 0 mm 2 mps 746 mmHg 62%
    05:00 +3°C° 0 mm 2 mps 746 mmHg 63%
    06:00 +3°C° 0 mm 2 mps 746 mmHg 64%
    07:00 +3°C° 0 mm 2 mps 746 mmHg 64%
    08:00 +5°C° 0 mm 2 mps 746 mmHg 62%
    09:00 +6°C° 0 mm 2 mps 746 mmHg 59%
    10:00 +8°C° 0 mm 2 mps 746 mmHg 56%
    11:00 +9°C° 0 mm 2 mps 746 mmHg 54%
    12:00 +12°C° 0 mm 2 mps 746 mmHg 51%
    13:00 +13°C° 0 mm 2 mps 745 mmHg 48%
    14:00 +12°C° 0 mm 2 mps 745 mmHg 52%
    15:00 +12°C° 0 mm 2 mps 745 mmHg 56%
    16:00 +10°C° 0 mm 2 mps 744 mmHg 60%
    17:00 +8°C° 0 mm 2 mps 744 mmHg 63%
    18:00 +7°C° 0 mm 3 mps 744 mmHg 67%
    19:00 +4°C° 0 mm 3 mps 744 mmHg 70%
    20:00 +4°C° 0 mm 3 mps 744 mmHg 71%
    21:00 +3°C° 0 mm 3 mps 744 mmHg 72%
    22:00 +3°C° 0 mm 3 mps 743 mmHg 73%
    23:00 +3°C° 0 mm 3 mps 743 mmHg 74%

    Tomorrow, 19 February, Tuesday

    Time Temperature Precipitation Wind Pressure Humidity
    00:00 +3°C° 0 mm 3 mps 743 mmHg 74%
    01:00 +1°C° 0 mm 4 mps 743 mmHg 75%
    02:00 +1°C° 0 mm 4 mps 743 mmHg 75%
    03:00 +1°C° 0 mm 4 mps 743 mmHg 75%
    04:00 +1°C° 0 mm 4 mps 742 mmHg 75%
    05:00 +1°C° 0 mm 4 mps 742 mmHg 76%
    06:00 +1°C° 0 mm 4 mps 742 mmHg 77%
    07:00 +1°C° 0 mm 3 mps 742 mmHg 78%
    08:00 +3°C° 0 mm 4 mps 742 mmHg 73%
    09:00 +5°C° 0 mm 4 mps 742 mmHg 69%
    10:00 +6°C° 0 mm 4 mps 742 mmHg 64%
    11:00 +7°C° 0 mm 4 mps 742 mmHg 61%
    12:00 +8°C° 0 mm 4 mps 741 mmHg 59%
    13:00 +10°C° 0 mm 4 mps 741 mmHg 56%
    14:00 +8°C° 0 mm 4 mps 741 mmHg 59%
    15:00 +8°C° 0 mm 5 mps 741 mmHg 61%
    16:00 +8°C° 0 mm 5 mps 741 mmHg 64%
    17:00 +7°C° 0 mm 4 mps 741 mmHg 68%
    18:00 +6°C° 0 mm 4 mps 741 mmHg 73%
    19:00 +5°C° 0 mm 3 mps 741 mmHg 77%
    20:00 +5°C° 0.6 mm 3 mps 742 mmHg 81%
    21:00 +5°C° 0.6 mm 4 mps 742 mmHg 85%
    22:00 +5°C° 0.6 mm 4 mps 742 mmHg 88%
    23:00 +4°C° 0 mm 4 mps 743 mmHg 88%

    Day after tomorrow, 20 February, Wednesday

    Time Temperature Precipitation Wind Pressure Humidity
    00:00 +3°C° 0 mm 4 mps 743 mmHg 88%
    01:00 +3°C° 0 mm 3 mps 743 mmHg 87%
    02:00 +2°C° 0 mm 3 mps 743 mmHg 88%
    03:00 +2°C° 0 mm 3 mps 743 mmHg 88%
    04:00 +2°C° 0 mm 3 mps 744 mmHg 88%
    05:00 +2°C° 0 mm 3 mps 744 mmHg 88%
    06:00 0°C° 0 mm 4 mps 744 mmHg 88%
    07:00 0°C° 0 mm 4 mps 744 mmHg 88%
    08:00 +3°C° 0 mm 4 mps 745 mmHg 83%
    09:00 +3°C° 0 mm 5 mps 745 mmHg 77%
    10:00 +5°C° 0 mm 5 mps 745 mmHg 72%
    11:00 +6°C° 0 mm 5 mps 745 mmHg 68%
    12:00 +7°C° 0 mm 5 mps 745 mmHg 64%
    13:00 +7°C° 0 mm 6 mps 745 mmHg 60%
    14:00 +7°C° 0 mm 5 mps 745 mmHg 62%
    15:00 +7°C° 0 mm 5 mps 745 mmHg 64%
    16:00 +7°C° 0 mm 4 mps 745 mmHg 66%
    17:00 +6°C° 0 mm 4 mps 745 mmHg 70%
    18:00 +5°C° 0 mm 3 mps 746 mmHg 75%
    19:00 +4°C° 0 mm 3 mps 746 mmHg 79%
    20:00 +4°C° 0 mm 3 mps 746 mmHg 80%
    21:00 +3°C° 0 mm 3 mps 746 mmHg 81%
    22:00 +3°C° 0 mm 3 mps 747 mmHg 82%
    23:00 +3°C° 0 mm 3 mps 747 mmHg 82%

    21 February, Thursday

    Time Temperature Precipitation Wind Pressure Humidity
    00:00 +3°C° 0 mm 3 mps 747 mmHg 82%
    01:00 +2°C° 0 mm 3 mps 747 mmHg 82%
    02:00 +2°C° 0 mm 3 mps 747 mmHg 82%
    03:00 +2°C° 0 mm 3 mps 747 mmHg 83%
    04:00 +2°C° 0 mm 3 mps 746 mmHg 84%
    05:00 +2°C° 0.2 mm 3 mps 747 mmHg 84%
    06:00 +3°C° 0.2 mm 3 mps 747 mmHg 84%
    07:00 +3°C° 0.2 mm 3 mps 747 mmHg 84%
    08:00 +4°C° 0.1 mm 4 mps 747 mmHg 81%
    09:00 +5°C° 0.1 mm 4 mps 747 mmHg 78%
    10:00 +5°C° 0.1 mm 4 mps 747 mmHg 75%
    11:00 +6°C° 0 mm 5 mps 747 mmHg 74%
    12:00 +7°C° 0 mm 5 mps 747 mmHg 73%
    13:00 +8°C° 0 mm 5 mps 747 mmHg 71%
    14:00 +7°C° 0.7 mm 4 mps 747 mmHg 76%
    15:00 +6°C° 0.7 mm 4 mps 747 mmHg 81%
    16:00 +7°C° 0.7 mm 3 mps 747 mmHg 86%
    17:00 +5°C° 0.4 mm 3 mps 747 mmHg 88%
    18:00 +6°C° 0.4 mm 2 mps 747 mmHg 90%
    19:00 +6°C° 0.4 mm 2 mps 747 mmHg 92%
    20:00 +6°C° 0.1 mm 2 mps 748 mmHg 92%
    21:00 +6°C° 0.1 mm 2 mps 748 mmHg 93%
    22:00 +6°C° 0.1 mm 2 mps 749 mmHg 93%
    23:00 +6°C° 0 mm 2 mps 749 mmHg 94%

    22 February, Friday

    Time Temperature Precipitation Wind Pressure Humidity
    00:00 +5°C° 0 mm 2 mps 749 mmHg 95%
    01:00 +5°C° 0 mm 2 mps 750 mmHg 95%
    02:00 +5°C° 0.1 mm 2 mps 750 mmHg 96%
    03:00 +5°C° 0.1 mm 3 mps 751 mmHg 96%
    04:00 +5°C° 0.1 mm 3 mps 751 mmHg 97%
    05:00 +5°C° 0 mm 3 mps 752 mmHg 96%
    06:00 +4°C° 0 mm 4 mps 752 mmHg 95%
    07:00 +4°C° 0 mm 4 mps 753 mmHg 94%
    08:00 +4°C° 0 mm 4 mps 753 mmHg 92%
    09:00 +4°C° 0 mm 4 mps 754 mmHg 90%
    10:00 +4°C° 0 mm 4 mps 754 mmHg 88%
    11:00 +4°C° 0 mm 4 mps 755 mmHg 87%
    12:00 +4°C° 0 mm 3 mps 755 mmHg 87%
    13:00 +4°C° 0 mm 3 mps 756 mmHg 86%
    14:00 +4°C° 0 mm 3 mps 756 mmHg 86%
    15:00 +4°C° 0 mm 3 mps 756 mmHg 85%
    16:00 +5°C° 0 mm 3 mps 756 mmHg 84%
    17:00 +4°C° 0 mm 3 mps 757 mmHg 87%
    18:00 +5°C° 0 mm 2 mps 757 mmHg 90%
    19:00 +5°C° 0 mm 1 mps 757 mmHg 92%
    20:00 +5°C° 0 mm 1 mps 758 mmHg 94%
    21:00 +5°C° 0 mm 1 mps 758 mmHg 95%
    22:00 +5°C° 0 mm 1 mps 759 mmHg 96%
    23:00 +4°C° 0 mm 1 mps 759 mmHg 95%

    23 February, Saturday

    Time Temperature Precipitation Wind Pressure Humidity
    00:00 +3°C° 0 mm 0 mps 759 mmHg 95%
    01:00 +3°C° 0 mm 0 mps 759 mmHg 94%
    02:00 +3°C° 0 mm 0 mps 759 mmHg 94%
    03:00 +2°C° 0 mm 0 mps 759 mmHg 93%
    04:00 +2°C° 0 mm 0 mps 759 mmHg 93%
    05:00 +2°C° 0 mm 0 mps 759 mmHg 93%
    06:00 +1°C° 0 mm 0 mps 759 mmHg 93%
    07:00 +1°C° 0 mm 0 mps 759 mmHg 93%
    08:00 +3°C° 0 mm 0 mps 759 mmHg 88%
    09:00 +4°C° 0 mm 0 mps 759 mmHg 82%
    10:00 +6°C° 0 mm 0 mps 760 mmHg 77%
    11:00 +8°C° 0 mm 1 mps 759 mmHg 71%
    12:00 +9°C° 0 mm 1 mps 759 mmHg 65%
    13:00 +10°C° 0 mm 1 mps 759 mmHg 60%
    14:00 +10°C° 0 mm 1 mps 759 mmHg 60%
    15:00 +10°C° 0 mm 1 mps 758 mmHg 61%
    16:00 +11°C° 0 mm 1 mps 758 mmHg 61%
    17:00 +9°C° 0 mm 1 mps 758 mmHg 67%
    18:00 +8°C° 0 mm 1 mps 758 mmHg 72%
    19:00 +7°C° 0 mm 1 mps 758 mmHg 78%
    20:00 +6°C° 0 mm 1 mps 758 mmHg 79%
    21:00 +6°C° 0 mm 1 mps 758 mmHg 80%
    22:00 +6°C° 0 mm 1 mps 758 mmHg 81%
    23:00 +6°C° 0 mm 1 mps 757 mmHg 81%
    Show more